User: anonymous   Login
Location: Unspecified
(0.0000°N, 0.0000°E)
Time: 08:53:04
(UTC+00:00)
Language:

Aussat K2 - Orbit

View from above orbital plane
View from above orbital plane
View from above satellite
View from above satellite

Ground track
Ground track

The orbit data is extracted from the following two-line orbital elements,

1 16275U 85109C   17173.78174562 -.00000082 +00000-0 +00000-0 0  9994
2 16275 015.1982 008.4694 0005445 244.9367 301.5750 00.99953227013734
Epoch (UTC): 22 June 2017 18:45:42
Eccentricity: 0.0005445
inclination: 15.1982°
perigee height: 35853 km
apogee height: 35899 km
right ascension of ascending node: 8.4694°
argument of perigee: 244.9367°
revolutions per day: 0.99953227
mean anomaly at epoch: 301.5750°
orbit number at epoch: 1373

The dashed part of the orbit path shows where the satellite is in the earth's shadow,  

DLR